sat.trackr.live / text

‹ back to catalog

STARLINK-1549

NORAD 46074 · 2020-055AZ

PAYLOAD ACTIVE UNKNOWN

§ Identity

Operator
Country
US
Launch date
2020-08-07
Launch site
AFETR
Launch vehicle
Mass (kg)
RCS (m²)

Purposes: comms

External: N2YO · Heavens-Above · Gunter

§ Orbital elements

Epoch: 2026-09-20T00:26:28.120128Z

Period
93.52 min
Inclination
53.0463°
Eccentricity
0.0004051
Mean motion
15.39699363 rev/d
Perigee alt
444.2 km
Apogee alt
449.8 km
Semi-major
6,825.1 km
B*
8.5863e-4
RAAN
273.5476°
Arg perigee
26.0391°
Mean anomaly
334.0816°
Rev number
33,902

§ Raw data

STARLINK-15491 46074U 20055AZ  26263.01838102  .00034197  00000+0  85863-3 0  99912 46074  53.0463 273.5476 0004051  26.0391 334.0816 15.39699363339025

JSON: /api/v1/satellites/46074 · /tle

For live sub-satellite position, see the globe view (requires WebGL).

§ Visibility from observer

Set your observer location to see the next 7 days of passes ≥ 10°. The values pass through the URL so the page stays shareable.

No JS? Fill the form by hand. The geolocation button needs JavaScript.